Regional Weather Roundup
Issued by NWS Albany, NY

Home | Current Version | Previous Version | Graphics & Text | Print | Product List | Glossary Off
Versions: 1 2 3 4 5 6 7 8 9 10 11 12 13 14 15 16 17 18 19 20 21 22 23 24 25 26 27 28 29 30 31 32 33 34 35 36 37 38 39 40 41 42 43 44 45 46 47 48 49 50

000
ASUS41 KALY 111810
RWRALY

NEW YORK STATE HOURLY WEATHER ROUNDUP
NATIONAL WEATHER SERVICE ALBANY NY
100 PM EST MON DEC 11 2017

NOTE: "FAIR" INDICATES FEW OR NO CLOUDS BELOW 12,000 FEET WITH NO
SIGNIFICANT WEATHER AND/OR NO OBSTRUCTIONS TO VISIBILITY.

NYZ032-033-038>043-046>054-057>066-NYZ062>081-082-084-111900-
EAST


CITY           SKY/WX    TMP DP  RH WIND       PRES   REMARKS
ALBANY         FLURRIES  33  22  63 NW12      29.98S WCI  24
GLENS FALLS    CLOUDY    31  23  72 N6        29.95S WCI  25
POUGHKEEPSIE   MOSUNNY   37  19  48 SW10      29.97F WCI  30
NEWBURGH       MOSUNNY   36  23  60 W14       29.98F WCI  27
MONTGOMERY     CLOUDY    36  21  54 NW9       29.95F WCI  29
WHITE PLAINS   MOSUNNY   37  20  50 NW12      29.96F WCI  29
ISLIP          MOSUNNY   41  24  51 NW12      29.98F
NEW YORK CITY  MOSUNNY   41  21  44 W8        29.99F
CENTRAL PARK   SUNNY     40  21  46 NW5       30.01F
$$

NYZ005>009-017-018-044>046-055-056-111900-
CENTRAL


CITY           SKY/WX    TMP DP  RH WIND       PRES   REMARKS
FULTON         CLOUDY    24  15  68 N7        30.01F WCI  16
SYRACUSE       LGT SNOW  24  20  84 N6        30.01F FOG     WCI  17
ROME           CLOUDY    26  17  68 NW12      30.01S WCI  16
ELMIRA         CLOUDY    32  23  69 S6        29.95F WCI  26
BINGHAMTON     CLOUDY    28  17  63 W7        29.90F WCI  21
$$

NYZ026>034-041>043-087-111900-
NORTH


CITY           SKY/WX    TMP DP  RH WIND       PRES   REMARKS
WATERTOWN      PTSUNNY   21   7  54 CALM      30.04S
FORT DRUM      NOT AVBL
OGDENSBURG     FAIR      22   4  44 W6        30.03F WCI  15
MASSENA        SUNNY     18   4  54 CALM      30.06F
SARANAC LAKE   CLOUDY    16   9  74 SW10      29.87F WCI   4
PLATTSBURGH    PTSUNNY   20  11  68 NE13      30.00F WCI   7
$$

NYZ001>004-010>016-019>021-085-111900-
WEST


CITY           SKY/WX    TMP DP  RH WIND       PRES   REMARKS
NIAGARA FALLS  LGT SNOW  26  18  71 E8        29.97F WCI  18
BUFFALO        FLURRIES  26  21  81 CALM      29.96F
DUNKIRK        FLURRIES  27  22  81 SE3       29.96F
JAMESTOWN      FLURRIES  26  21  81 SW8       29.90F WCI  18
WELLSVILLE     CLOUDY    28  18  66 SW7       29.89F WCI  21
ROCHESTER      LGT SNOW  25  21  85 NE6       29.99F FOG     WCI  18
PENN YAN       LGT SNOW  26  20  77 NE6       29.96F WCI  19
$$

             KEY
       WCI = WIND CHILL INDEX
       VSB = VISIBILITY
       HX  = HEAT INDEX
$$



USA.gov is the U.S. government's official web portal to all federal, state and local government web resources and services.